Regional Weather Roundup
Issued by NWS Sterling, VA

Home | Current Version | Previous Version | Graphics & Text | Print | Product List | Glossary On
Versions: 1 2 3 4 5 6 7 8 9 10 11 12 13 14 15 16 17 18 19 20 21 22 23 24 25 26 27 28 29 30 31 32 33 34 35 36 37 38 39 40 41 42 43 44 45 46 47 48 49 50
564
ASUS41 KLWX 260611
RWRLWX

REGIONAL WEATHER ROUNDUP
NATIONAL WEATHER SERVICE BALTIMORE MD/WASHINGTON DC
200 AM EDT MON JUN 26 2017

Note: "FAIR" indicates few or no clouds below 12,000 feet
with no significant weather and/or obstructions to visibility.
 TC=TEMPERATURE CELSIUS

 * =Non NWS site. Station does not report precipitation (e.g. rain,
    snow, etc.), thunder, or fog.

DCZ001-MDZ009-015-VAZ040>042-051-053>054-260700-
WASHINGTON METRO

CITY           SKY/WX    TMP DP  RH WIND       PRES   REMARKS
WASHINGTON NAT PTCLDY    72  46  39 NW7       30.05S
DULLES         PTCLDY    66  47  50 W5        30.06S
ANDREWS AFB    CLEAR     67  50  56 W3        30.04S
FT BELVOIR     CLEAR     58  52  81 SE3       30.05S
QUANTICO       CLEAR     66  54  65 NW9       30.06S
COLLEGE PARK*  CLEAR     65  51  61 CALM      30.04S
LEESBURG*      CLEAR    N/A N/A N/A W9        30.07S
MANASSAS*      CLEAR     58  54  86 CALM      30.07R
GAITHERSBURG*  CLEAR     60  49  66 CALM      30.07R

$$

MDZ006>007-011-014-260700-
BALTIMORE METRO

CITY           SKY/WX    TMP DP  RH WIND       PRES   REMARKS
BWI AIRPORT    CLEAR     63  51  65 W7        30.03S
MD SCIENCE CTR   N/A     73  47  39 MISG      30.04S
MARTIN STATE   CLEAR     68  52  56 W6        30.04S
ANNAPOLIS      CLEAR     67  50  54 W3        30.03S
FORT MEADE*    CLEAR     59  54  82 CALM      30.06S

$$

MDZ012-015-019>023-260700-
MARYLAND EASTERN SHORE

CITY           SKY/WX    TMP DP  RH WIND       PRES   REMARKS
OCEAN CITY     MOCLDY    66  59  78 NW5       30.03S
SALISBURY      PTCLDY    65  63  93 CALM      30.03S
BAY BRIDGE AP* CLEAR     75  52  43 W12       30.03S
CAMBRIDGE*     MOCLDY    73  52  46 NW6       30.04R
EASTON*        CLEAR     73  51  44 CALM      30.07S

$$

MDZ017>025-260700-
SOUTHERN MARYLAND

CITY           SKY/WX    TMP DP  RH WIND       PRES   REMARKS
PATUXENT RIVER PTCLDY    70  50  49 W7        30.04S
ST INIGOES     PTCLDY    67  61  81 CALM      30.03S
LEONARDTOWN*   CLEAR     64  54  68 W5        30.06S

$$

MDZ003>005-260700-
NORTH CENTRAL MARYLAND

CITY           SKY/WX    TMP DP  RH WIND       PRES   REMARKS
FREDERICK*     CLEAR     61  57  88 CALM      30.08S
HAGERSTOWN APT CLEAR     66  52  60 CALM      30.06F
WESTMINSTER*   PTCLDY    68  52  56 W6        30.06S

$$

MDZ501>502-260700-
WESTERN MARYLAND

CITY           SKY/WX    TMP DP  RH WIND       PRES   REMARKS
OAKLAND*       NOT AVBL
CUMBERLAND*    CLEAR     59  54  82 CALM      30.12S

$$

VAZ025>031-260700-
SHENANDOAH VALLEY

CITY           SKY/WX    TMP DP  RH WIND       PRES   REMARKS
WINCHESTER*    CLEAR     61  46  59 CALM      30.07F
FRONT ROYAL*   CLEAR     59  50  72 S6        30.07S
LURAY*         CLEAR     59  52  77 S3        30.09F
NEW MARKET*    CLEAR     56  52  86 SW3       30.10S
STAUNTON*      CLEAR     55  49  81 CALM      30.13S
WAYNESBORO*    CLEAR     56  50  82 S5        30.12F

$$

WVZ021-048>050-054>055-260700-
EASTERN WEST VIRGINIA PANHANDLE

CITY           SKY/WX    TMP DP  RH WIND       PRES   REMARKS
MARTINSBURG    CLEAR     67  47  48 W10       30.06S
PETERSBURG*    MOCLDY    57  55  92 CALM      30.12S

$$

VAZ036>039-050-260700-
CENTRAL FOOTHILLS

CITY           SKY/WX    TMP DP  RH WIND       PRES   REMARKS
CHARLOTTESVILL CLEAR     66  48  52 SW5       30.09S
CULPEPER*      CLEAR     57  53  86 CALM      30.08S
ORANGE*        CLEAR     61  48  63 SW5       30.08S
GORDONSVILLE*  CLEAR     58  52  81 CALM      30.08S
WARRENTON*     CLEAR     57  49  75 CALM      30.06S

$$

VAZ055>057-260700-
NORTH AND CENTRAL PIEDMONT

CITY           SKY/WX    TMP DP  RH WIND       PRES   REMARKS
FREDERICKSBRG* CLEAR     62  55  80 CALM      30.06S
STAFFORD*      CLEAR     57  55  95 CALM      30.10S

$$

NCZ024-NYZ072-PAZ021-071-VAZ022-071-260700-
OTHER REGIONAL OBSERVATIONS

CITY           SKY/WX    TMP DP  RH WIND       PRES   REMARKS
NEW YORK CITY  PTCLDY    69  49  48 VRB5      30.02S
PHILADELPHIA   PTCLDY    73  46  38 W9        30.01R
PITTSBURGH     CLEAR     57  46  66 W5        30.07F
ROANOKE        CLEAR     60  51  72 SE3       30.16S
RICHMOND       CLEAR     67  60  78 NW6       30.06S
RALEIGH        PTCLDY    68  62  81 CALM      30.10F

$$

ANZ530>537-260700-
MARINE OBSERVATIONS

STATION/POSITION TIME  TEMP    WIND        PRES
                       AIR SEA DIR/SP/G
                 (UTC) (F)     (DEG/KT/KT) (MB)
THOMAS PT LIGHT  0600   73 78  290/ 10/ 11   N/A
BALT KEY BRIDGE  0548   74     270/  9/ 12 1016.6R
COVE POINT       0548   74     320/  7/  8 1017.8S
LEWISETTA        0548   75 80  300/  5/  6 1017.1S
SOLOMONS ISLAND  0548   73 79  290/  3/  6   N/A
PINEY POINT      0548          350/ 11/ 12   N/A

$$





USA.gov is the U.S. government's official web portal to all federal, state and local government web resources and services.